Flag for U.S.A. Weather past 2 weeks in Post Falls, Idaho, U.S.A.

Now
57 °F

Clear.


Feels Like: 56 °F
Forecast: 62 / 97 °F
Wind: 6 mph from Southeast

Location: Coeur d'Alene Weather Reporting System

Current Time: Aug 1, 2014 at 5:59:50 AM

Latest Report: Aug 1, 2014 at 5:15 AM


Visibility: 10 mi

Pressure: 30.04 "Hg

Humidity: 67%

Dew point: 46 °F

Location of Post FallsLocation

Historic Weather in Post Falls — Graph

°F

Post Falls temperature yesterday

Maximum temperature yesterday: 99 °F (at 3:55 PM)
Minimum temperature yesterday: 57 °F (at 4:35 AM)
Average temperature yesterday: 78 °F

Past Weeks' High & Low Weather Summary

 TemperatureHumidityPressure
High99 °F (Jul 29, 2:35 PM)94% (Jul 24, 1:55 AM)30.20 "Hg (Jul 24, 1:55 AM)
Low48 °F (Jul 26, 4:35 AM)11% (Jul 21, 5:55 AM)29.74 "Hg (Jul 17, 7:55 PM)
Average71 °F49%30.00 "Hg
* Reported Jul 17 4:35 AM — Aug 1 4:55 AM, Post Falls, Weather by CustomWeather, © 2014

Note: Actual official high and low records may vary slightly from our data, if they occured in-between our weather recording intervals... More about our weather records

Advertising

Post Falls weather history for previous 24 hours

 ConditionsComfort  
Time TempWeatherWind HumidityBarometerVisibility
4:55 AM
Aug 1
57 °FClear.6 mph67%30.04 "Hg10 mi
4:35 AM55 °FClear.5 mph72%30.04 "Hg10 mi
4:15 AM57 °FClear.7 mph63%30.03 "Hg10 mi
3:55 AM61 °FClear.7 mph59%30.03 "Hg10 mi
3:35 AM63 °FClear.7 mph56%30.03 "Hg10 mi
3:15 AM63 °FClear.5 mph56%30.03 "Hg10 mi
2:55 AM61 °FClear.8 mph59%30.03 "Hg10 mi
2:35 AM63 °FClear.7 mph56%30.03 "Hg10 mi
1:55 AM66 °FClear.5 mph52%30.03 "Hg10 mi
1:35 AM66 °FClear.No wind52%30.03 "Hg10 mi
1:15 AM66 °FClear.5 mph52%30.02 "Hg10 mi
12:55 AM68 °FClear.3 mph49%30.03 "Hg10 mi
12:35 AM68 °FClear.5 mph46%30.02 "Hg10 mi
11:55 PM
Jul 31
70 °FClear.No wind46%30.02 "Hg10 mi
11:35 PM70 °FClear.6 mph50%30.02 "Hg10 mi
11:15 PM70 °FClear.8 mph46%30.01 "Hg10 mi
10:55 PM72 °FClear.7 mph44%30.01 "Hg10 mi
10:35 PM73 °FClear.No wind44%30.01 "Hg10 mi
10:15 PM73 °FClear.No wind36%30.00 "Hg10 mi
9:55 PM75 °FClear.3 mph34%29.99 "Hg10 mi
9:15 PM79 °FSunny.No wind30%29.97 "Hg10 mi
8:55 PM75 °FSunny.3 mph34%29.99 "Hg10 mi
8:35 PM81 °FSunny.7 mph26%29.98 "Hg10 mi
8:15 PM79 °FSunny.7 mph32%29.98 "Hg10 mi
7:55 PM82 °FSunny.No wind32%29.95 "Hg10 mi
7:35 PM86 °FSunny.No wind27%29.94 "Hg10 mi
7:15 PM86 °FSunny.No wind25%29.94 "Hg10 mi
6:55 PM88 °FSunny.No wind25%29.94 "Hg10 mi
6:35 PM90 °FSunny.No wind24%29.94 "Hg10 mi
6:15 PM90 °FSunny.6 mph20%29.96 "Hg10 mi
5:55 PM93 °FSunny.6 mph12%29.97 "Hg10 mi
5:35 PM97 °FSunny.9 mph12%29.97 "Hg10 mi
5:15 PM99 °FSunny.13 mph12%29.97 "Hg10 mi
4:55 PM97 °FSunny.6 mph12%29.97 "Hg10 mi
4:35 PM97 °FSunny.12 mph13%29.98 "Hg10 mi
4:15 PM97 °FSunny.13 mph13%29.98 "Hg10 mi
3:55 PM99 °FSunny.10 mph12%29.99 "Hg10 mi
3:35 PM97 °FSunny.10 mph14%29.99 "Hg10 mi
3:15 PM95 °FSunny.3 mph18%29.99 "Hg10 mi
2:55 PM97 °FSunny.6 mph18%30.00 "Hg10 mi
2:35 PM95 °FSunny.5 mph19%30.01 "Hg10 mi
2:15 PM95 °FSunny.No wind20%30.02 "Hg10 mi
1:55 PM93 °FSunny.5 mph21%30.02 "Hg10 mi
1:35 PM93 °FSunny.No wind21%30.01 "Hg10 mi
1:15 PM93 °FSunny.No wind21%30.02 "Hg10 mi
12:55 PM91 °FSunny.No wind23%30.05 "Hg10 mi
12:35 PM91 °FSunny.No wind24%30.04 "Hg10 mi
12:15 PM90 °FSunny.No wind26%30.06 "Hg9 mi
11:55 AM88 °FSunny.7 mph29%30.06 "Hg10 mi
11:35 AM88 °FSunny.5 mph29%30.06 "Hg10 mi
11:15 AM88 °FSunny.6 mph29%30.07 "Hg10 mi
10:55 AM86 °FSunny.No wind31%30.05 "Hg10 mi
10:35 AM82 °FSunny.No wind35%30.06 "Hg10 mi
9:55 AM81 °FSunny.5 mph39%30.07 "Hg10 mi
9:35 AM79 °FSunny.7 mph45%30.08 "Hg10 mi
8:55 AM75 °FSunny.7 mph47%30.08 "Hg10 mi
8:35 AM73 °FSunny.5 mph47%30.08 "Hg10 mi
7:55 AM72 °FSunny.6 mph47%30.08 "Hg10 mi
7:35 AM72 °FSunny.7 mph50%30.07 "Hg10 mi
7:15 AM68 °FSunny.6 mph60%30.07 "Hg10 mi
6:55 AM64 °FSunny.7 mph56%30.06 "Hg10 mi
6:35 AM61 °FSunny.3 mph68%30.06 "Hg10 mi
6:15 AM59 °FClear.8 mph68%30.05 "Hg10 mi
5:55 AM57 °FClear.9 mph67%30.05 "Hg10 mi
5:35 AM59 °FClear.7 mph68%30.05 "Hg10 mi
5:15 AM59 °FClear.6 mph68%30.05 "Hg10 mi
Weather by CustomWeather, © 2014

See weather overviewHow to use our weather pages